Temperature
9 10 10 10 10 10 11 11 11 11 12 14 14 15 15 15 15 15 15 16 16 16 16 16 16 16 16 16 16 16 16 16 16 16 16 16 16 16
9 9 9 9 10 10 10 10 11 11 11 12 13 14 15 15 15 15 15 15 16 16 16 16 16 16 16 16 16 16 16 16 16 16 16 16 16 16
8 8 8 9 9 9 10 10 10 10 11 12 13 14 14 15 15 15 15 15 15 15 16 16 16 16 16 16 16 16 16 16 16 16 16 16 16 16
8 8 8 8 8 9 9 9 10 10 10 11 12 13 14 14 15 15 15 15 15 15 15 16 16 16 16 16 16 16 16 16 16 16 16 16 16 16
8 8 8 8 8 8 9 9 9 10 10 10 11 12 13 13 14 14 14 15 15 15 15 15 15 16 16 16 16 16 16 16 16 16 16 16 16 16
8 8 8 8 8 8 8 8 9 9 10 10 10 11 12 12 13 14 14 14 14 15 15 15 15 15 15 15 15 15 16 16 16 16 16 16 16 16
8 8 8 7 7 7 8 8 8 9 9 10 10 10 11 12 12 13 13 13 14 14 14 14 15 15 15 15 15 15 15 16 16 16 16 16 16 15
8 8 8 7 7 7 7 7 8 8 9 9 10 10 11 11 12 12 13 13 13 13 13 13 14 14 14 15 15 15 15 16 16 16 15 15 15 15
7 7 7 7 7 7 7 7 7 8 8 9 9 10 10 11 11 12 12 12 13 13 12 12 12 13 13 14 14 15 15 15 15 15 15 15 15 15
7 7 7 7 7 7 7 7 7 7 8 8 9 9 10 10 11 11 12 12 12 12 12 12 12 12 12 12 13 14 14 15 15 15 15 15 15 15
7 7 7 7 7 7 6 6 7 7 8 8 8 9 9 10 10 10 11 11 12 12 12 12 11 11 11 11 12 12 13 13 14 14 14 14 14 14
7 7 7 6 7 6 6 6 6 7 7 8 8 9 9 9 10 10 10 11 11 11 11 11 11 11 11 11 11 11 12 12 12 13 13 13 13 13
6 7 7 6 6 6 6 6 6 7 7 7 8 8 9 9 10 10 10 10 11 11 12 11 11 11 11 10 11 11 11 11 12 12 12 12 13 13
6 6 6 6 6 6 6 6 6 6 6 7 7 8 8 9 9 10 10 10 10 11 12 12 12 11 11 11 10 10 11 11 11 11 11 12 12 12
6 6 6 6 6 6 6 6 6 6 6 7 7 8 8 9 9 9 10 10 10 10 11 11 12 12 12 11 11 11 10 11 11 11 11 11 12 12
6 6 6 6 6 6 6 6 6 6 6 7 7 8 8 8 9 9 9 9 10 10 10 11 11 11 11 12 12 11 11 11 11 11 11 11 11 12
6 6 6 6 6 6 6 6 6 6 6 7 7 8 8 8 8 8 9 9 9 9 10 10 10 11 11 11 11 11 11 11 11 11 11 11 11 11
6 6 6 6 6 6 6 6 6 6 6 7 7 7 8 8 8 8 8 9 9 9 9 10 10 10 10 10 11 11 11 11 11 11 11 11 11 11
6 6 6 6 6 6 6 6 6 6 6 7 7 7 8 8 8 8 8 8 9 9 9 10 10 10 10 10 10 11 11 11 11 11 11 11 11 11
6 6 6 6 6 6 6 6 6 6 7 7 7 7 7 8 8 8 8 8 8 9 9 9 10 10 10 11 11 11 11 11 11 11 11 10 10 10
6 6 6 6 6 7 7 7 7 7 7 7 7 7 8 8 8 8 8 8 9 9 9 9 9 10 10 10 10 11 11 11 11 11 11 10 10 10
7 7 7 7 7 7 7 7 7 7 7 7 7 7 8 8 8 8 8 8 9 9 9 9 9 9 9 10 10 11 11 10 10 10 10 11 11 11
7 7 7 7 7 7 7 7 7 7 7 7 8 8 8 8 8 8 8 8 8 9 9 8 8 9 9 9 10 10 10 10 10 9 9 9 10 10
Wind_Speed
5 5 4 4 4 5 4 4 3 4 4 3 2 2 3 4 8 10 13 17 21 23 24 24 25 26 27 28 28 28 27 27 27 27 26 26 26 26
5 5 5 5 5 5 5 5 5 5 5 3 3 4 5 4 5 7 9 12 16 20 21 22 23 24 25 26 26 27 26 26 25 25 25 24 24 24
6 6 7 6 5 5 5 5 5 5 7 6 3 4 5 4 2 2 3 5 7 14 17 18 20 21 22 23 23 24 24 24 24 24 24 23 23 23
9 8 9 7 7 6 5 6 6 6 6 8 5 4 4 3 1 2 2 2 3 8 12 14 16 18 19 20 20 21 21 21 21 21 21 21 21 21
10 10 10 9 9 7 7 7 6 7 6 6 5 3 3 2 0 2 4 3 3 6 8 9 11 13 15 16 17 18 19 19 19 20 19 19 19 19
10 10 10 10 10 10 8 8 7 7 7 6 6 4 4 3 2 2 3 2 3 4 6 7 9 10 11 13 15 16 17 17 18 18 17 17 17 16
11 11 11 12 14 11 9 8 8 7 7 6 6 4 4 3 4 3 4 4 3 3 4 4 5 5 5 8 11 13 15 16 17 16 16 16 15 15
13 12 11 13 15 16 17 15 13 10 9 8 7 6 6 5 4 4 5 5 4 4 4 3 3 4 3 4 9 13 15 15 16 16 16 16 16 16
13 12 11 11 12 11 13 16 16 17 15 11 10 9 7 6 6 7 7 6 4 7 5 3 3 3 3 5 9 13 15 16 17 17 18 18 18 17
13 13 13 13 12 12 12 12 12 12 14 13 11 11 9 7 6 6 6 6 5 4 4 4 3 3 3 6 8 12 15 17 19 19 20 20 19 19
12 12 13 13 14 15 13 13 13 11 12 14 14 13 12 11 7 5 7 8 5 4 2 4 4 3 3 3 7 12 15 17 19 20 21 22 22 20
10 10 14 15 15 15 13 13 14 12 11 10 11 12 11 11 11 9 8 9 6 5 4 5 5 5 3 2 3 6 10 14 18 20 21 23 21 15
9 9 9 13 15 16 15 13 14 12 10 10 9 9 8 8 9 9 8 8 8 4 8 6 6 4 5 4 2 3 4 5 8 11 16 18 17 14
9 9 9 11 13 15 13 14 15 13 9 9 8 9 8 9 8 9 9 7 5 6 11 9 6 7 6 5 4 3 3 5 6 7 9 13 13 13
8 10 11 12 11 10 12 14 12 10 9 9 10 9 9 9 8 7 7 6 6 7 12 7 8 9 7 6 7 5 4 3 5 7 7 7 7 8
6 7 9 10 8 7 7 7 8 8 9 9 9 8 7 7 8 8 7 7 6 5 6 8 10 12 6 7 9 8 7 7 7 7 7 6 6 7
5 4 4 4 4 4 5 6 7 8 9 8 8 8 7 8 8 8 8 8 7 8 7 5 6 5 6 8 8 10 10 7 9 9 7 6 5 6
5 5 5 5 5 6 6 6 7 8 8 8 8 8 8 8 9 8 8 8 8 8 8 8 8 6 4 4 3 10 9 8 10 10 8 6 6 6
5 7 6 6 6 6 6 6 7 7 7 7 8 8 8 8 8 9 9 9 9 9 10 10 10 9 8 6 4 6 9 10 11 10 8 5 6 7
6 7 7 6 6 6 6 6 6 6 7 7 7 7 7 8 9 9 10 10 9 9 9 10 11 10 9 9 7 6 11 13 11 11 9 5 5 7
6 7 7 7 6 6 6 6 6 6 7 7 7 7 7 8 8 9 9 12 10 9 11 11 9 10 8 8 7 5 8 11 11 9 10 8 7 7
7 7 7 7 6 6 5 5 6 6 7 7 7 7 8 8 9 10 10 10 10 9 9 9 11 10 7 8 9 9 9 9 9 12 13 8 7 9
7 7 7 7 6 6 6 6 7 6 6 7 7 8 9 9 8 9 10 10 10 10 11 10 10 8 6 8 9 9 12 12 10 9 7 3 6 9
Wind_Direction
269 265 256 257 252 251 246 246 269 294 295 289 302 333 293 251 234 226 230 223 214 211 210 208 207 206 205 204 204 207 208 210 212 212 214 216 218 220
262 263 262 261 258 252 247 244 241 255 274 293 306 319 314 287 244 224 226 224 216 210 207 205 204 203 201 201 202 204 206 208 211 211 213 215 216 217
263 260 263 262 259 255 246 241 241 240 262 280 281 304 305 293 270 208 197 198 208 206 203 200 198 197 197 197 199 201 203 206 209 211 212 213 214 216
260 258 261 263 256 254 246 241 239 236 246 272 285 295 298 298 251 143 118 118 139 177 186 189 190 189 189 191 194 197 199 203 206 208 209 209 211 214
255 253 255 255 256 253 248 245 243 244 238 253 272 279 287 280 199 116 107 98 97 116 137 159 173 178 182 186 190 193 195 199 202 204 205 204 206 208
256 251 250 246 247 249 247 244 243 244 241 244 257 265 269 267 210 166 141 126 115 102 105 114 137 153 168 177 183 188 191 194 195 196 196 196 198 198
264 255 249 246 244 242 239 237 236 237 237 236 244 251 252 241 217 179 165 146 120 128 122 105 113 116 134 159 171 177 181 184 185 185 185 185 184 182
270 266 258 257 254 251 247 240 228 228 231 231 232 233 240 239 228 195 166 164 160 153 132 103 91 97 85 115 153 163 167 170 170 171 171 169 166 163
266 266 265 259 250 245 247 248 243 233 225 226 230 227 229 228 221 207 191 174 159 157 136 113 87 87 57 79 132 145 150 153 154 154 153 151 150 148
262 259 258 258 253 244 244 246 245 242 234 232 231 229 227 221 221 224 193 149 117 133 128 124 112 90 63 61 97 126 136 140 140 141 141 140 138 136
263 259 254 255 248 238 241 246 247 247 241 232 226 226 222 216 208 204 182 170 161 151 124 124 127 102 73 53 64 100 119 128 132 133 134 132 130 124
267 262 254 251 247 236 238 240 243 242 238 232 224 225 223 219 209 210 198 187 167 160 161 134 140 137 114 66 52 80 98 109 120 129 133 134 131 123
268 268 259 247 244 240 233 235 235 233 232 226 220 217 214 214 213 211 207 198 185 166 164 146 145 142 129 127 92 68 97 114 109 115 126 132 134 134
263 266 264 255 250 246 237 230 226 222 227 221 215 212 210 210 210 208 206 205 197 168 167 156 147 154 140 137 139 117 92 111 123 127 126 119 113 118
261 261 265 264 260 252 238 224 216 216 214 216 214 211 209 207 201 201 199 187 163 156 163 163 150 153 146 145 147 147 139 140 142 140 141 144 144 143
274 272 270 266 252 244 236 221 215 211 210 215 215 209 200 199 199 193 192 180 164 152 150 152 156 153 145 145 154 161 158 157 161 153 144 143 150 157
286 278 269 265 252 240 232 221 212 209 213 216 213 204 198 198 198 192 188 180 177 169 157 133 114 99 116 144 155 161 156 152 159 156 152 151 162 170
266 262 267 258 249 241 229 219 211 211 212 209 205 200 196 197 194 190 186 186 181 171 162 152 141 120 97 52 121 158 157 155 158 161 156 154 166 177
245 255 258 256 247 241 230 222 218 210 205 201 201 197 192 193 193 192 188 187 184 174 167 163 165 161 164 168 169 173 160 154 156 163 168 161 168 171
238 250 254 254 246 238 230 224 220 206 201 203 200 195 191 191 193 192 189 187 181 170 168 173 181 181 181 168 156 171 169 160 161 165 163 140 116 126
247 247 250 249 246 239 232 221 216 210 204 201 201 198 194 194 193 192 188 180 176 174 177 183 179 149 117 120 123 139 168 170 162 160 158 151 146 155
254 250 248 244 239 236 229 217 210 207 203 202 199 198 198 199 196 189 186 182 181 178 174 163 155 153 154 162 157 150 153 157 151 153 159 151 162 174
256 252 247 242 235 229 226 219 214 213 207 201 198 198 198 198 195 191 187 183 177 171 162 160 162 166 164 156 150 149 154 155 155 158 166 149 144 151
Height
1480 1480 1480 1480 1480 1480 1480 1480 1479 1476 1474 1474 1476 1476 1476 1478 1479 1481 1483 1486 1490 1494 1498 1503 1508 1513 1518 1523 1528 1533 1538 1542 1547 1550 1554 1558 1562 1565
1474 1474 1474 1474 1475 1475 1475 1475 1475 1475 1472 1471 1472 1473 1473 1474 1475 1477 1478 1481 1484 1488 1493 1498 1502 1507 1512 1517 1522 1527 1532 1536 1540 1545 1548 1552 1556 1559
1469 1468 1468 1468 1468 1469 1470 1470 1471 1471 1469 1467 1469 1469 1470 1471 1472 1473 1475 1477 1480 1484 1488 1493 1497 1502 1507 1512 1517 1521 1526 1530 1534 1539 1542 1546 1550 1554
1463 1462 1462 1462 1462 1463 1463 1464 1465 1466 1465 1464 1464 1465 1466 1467 1469 1470 1471 1474 1476 1480 1484 1489 1493 1498 1502 1507 1511 1516 1520 1524 1529 1533 1537 1541 1545 1548
1456 1456 1456 1456 1455 1456 1457 1458 1459 1460 1461 1460 1460 1461 1462 1463 1465 1466 1468 1470 1473 1477 1481 1485 1489 1493 1497 1502 1506 1510 1515 1519 1523 1527 1531 1535 1539 1543
1450 1449 1449 1449 1449 1449 1450 1451 1452 1454 1455 1455 1456 1457 1458 1459 1461 1463 1465 1468 1470 1474 1477 1481 1484 1488 1492 1496 1501 1505 1509 1514 1518 1522 1526 1530 1534 1538
1442 1442 1441 1441 1442 1442 1443 1444 1446 1447 1449 1450 1451 1452 1453 1456 1458 1460 1462 1465 1467 1470 1474 1477 1480 1484 1487 1491 1495 1500 1504 1509 1513 1517 1522 1526 1530 1533
1435 1434 1434 1434 1434 1435 1436 1437 1439 1440 1442 1444 1445 1447 1449 1451 1453 1456 1459 1461 1464 1468 1471 1474 1477 1480 1483 1487 1491 1495 1500 1504 1509 1513 1517 1521 1525 1529
1428 1427 1426 1426 1427 1427 1428 1430 1431 1433 1436 1438 1439 1441 1444 1446 1449 1451 1454 1457 1460 1463 1468 1470 1474 1477 1480 1483 1487 1491 1496 1500 1505 1509 1513 1517 1521 1525
1421 1420 1419 1418 1419 1420 1420 1421 1423 1425 1428 1430 1433 1436 1439 1441 1443 1446 1449 1452 1456 1460 1464 1468 1471 1475 1478 1481 1484 1488 1492 1497 1501 1506 1510 1514 1518 1521
1414 1413 1412 1411 1411 1412 1412 1413 1414 1417 1420 1423 1426 1429 1433 1436 1438 1441 1443 1447 1450 1455 1460 1464 1468 1472 1476 1479 1482 1486 1490 1494 1498 1503 1507 1511 1514 1518
1407 1405 1404 1404 1403 1404 1404 1405 1406 1409 1413 1416 1419 1422 1426 1429 1432 1435 1438 1441 1445 1450 1454 1460 1464 1469 1473 1477 1480 1484 1488 1492 1496 1500 1504 1508 1512 1515
1400 1398 1397 1397 1396 1396 1396 1397 1399 1403 1406 1409 1412 1415 1419 1422 1426 1429 1432 1436 1440 1443 1449 1455 1459 1464 1468 1473 1478 1482 1486 1490 1494 1498 1502 1506 1509 1513
1393 1392 1391 1390 1389 1389 1389 1390 1393 1396 1398 1401 1405 1408 1411 1415 1419 1423 1427 1430 1435 1439 1444 1450 1454 1459 1464 1469 1473 1478 1483 1487 1492 1496 1499 1503 1507 1511
1388 1386 1385 1384 1383 1382 1383 1384 1386 1389 1392 1394 1397 1401 1406 1410 1414 1418 1422 1426 1430 1434 1439 1445 1450 1456 1461 1465 1469 1474 1479 1484 1489 1493 1497 1501 1505 1509
1383 1381 1380 1379 1378 1377 1377 1379 1380 1383 1386 1389 1392 1397 1401 1404 1407 1412 1415 1419 1424 1428 1433 1439 1445 1451 1457 1462 1467 1471 1475 1480 1485 1490 1494 1499 1503 1507
1378 1377 1376 1375 1374 1373 1373 1374 1376 1378 1381 1384 1387 1391 1395 1398 1402 1406 1410 1415 1419 1423 1428 1433 1440 1446 1453 1458 1463 1468 1472 1477 1482 1486 1491 1496 1500 1504
1374 1372 1371 1371 1370 1370 1370 1370 1372 1374 1376 1379 1383 1386 1390 1393 1397 1401 1405 1409 1414 1418 1423 1428 1434 1440 1447 1453 1459 1464 1468 1473 1478 1483 1488 1493 1497 1501
1370 1368 1367 1367 1367 1366 1366 1367 1368 1370 1373 1376 1379 1382 1385 1389 1393 1396 1400 1404 1409 1413 1418 1423 1429 1435 1441 1447 1453 1459 1464 1469 1474 1480 1485 1490 1495 1499
1365 1364 1363 1363 1363 1363 1363 1364 1365 1367 1369 1372 1375 1379 1382 1385 1388 1392 1395 1400 1404 1408 1413 1419 1425 1430 1436 1442 1448 1454 1460 1465 1470 1475 1481 1486 1492 1496
1361 1360 1359 1359 1359 1359 1360 1361 1362 1364 1366 1369 1372 1375 1378 1381 1385 1388 1392 1396 1400 1404 1409 1414 1420 1427 1433 1440 1445 1450 1456 1461 1467 1472 1477 1482 1486 1491
1357 1356 1355 1354 1355 1355 1356 1357 1359 1361 1363 1366 1369 1372 1375 1378 1381 1385 1388 1392 1396 1401 1405 1411 1416 1422 1428 1434 1439 1445 1451 1457 1462 1469 1475 1479 1482 1486
1352 1351 1350 1350 1351 1351 1352 1354 1355 1357 1360 1362 1365 1368 1371 1375 1378 1382 1385 1389 1393 1397 1402 1407 1412 1418 1424 1429 1435 1441 1446 1452 1457 1463 1469 1475 1481 1486